Location: Exeidioux
(45.6312°N, 1.6819°E)
Time: 12:42:47
(UTC+00:00)

USA 307 - Pass Details

Date: 03 March 2021
Orbit: 567 x 577 km, 54.0° (Epoch: 10 April)

Event Time Altitude Azimuth Distance (km) Brightness Sun altitude
Rises 18:14:43 0° 273° (W) 2,786 9.0 -6.3°
Reaches altitude 10° 18:17:11 10° 284° (WNW) 1,887 7.0 -6.8°
Maximum altitude 18:21:01 31° 347° (NNW) 1,032 4.3 -7.4°
Drops below altitude 10° 18:24:51 10° 50° (NE) 1,884 5.1 -8.1°
Enters shadow 18:25:45 - 55° (NE) 2,203 5.4 -8.3°
